This demonstration page uses our WeatherBlox Daily Observations layout. Learn more.

38.89511, -77.03637

Hourly Observations for January 19, 2021

Temp ( °F °C ) Dew Point ( °F °C ) Humidity (%) Winds ( mph kmh ) Pressure ( in mb ) Visibility ( mi km ) Precip ( " mm )
12:52 am 00:52 Cloudy 36 2.2 21 -6.1 55 55 SW 5 7 30.09 1019 10 16.0934 0 0
1:52 am 01:52 Mostly Clear 36 2.2 20 -6.7 52 52 WSW 5 7 30.11 1020 10 16.0934 0 0
2:52 am 02:52 Mostly Cloudy 35 1.7 21 -6.1 57 57 SW 5 7 30.12 1020 10 16.0934 0 0
3:52 am 03:52 Cloudy 35 1.7 22 -5.6 59 59 SW 5 7 30.14 1021 10 16.0934 0 0
4:52 am 04:52 Cloudy 36 2.2 21 -6.1 55 55 WSW 7 11 30.16 1021 10 16.0934 0 0
5:52 am 05:52 Cloudy 36 2.2 21 -6.1 55 55 SW 6 9 30.16 1022 10 16.0934 0 0
6:52 am 06:52 Mostly Clear 34 1.1 21 -6.1 59 59 S 6 9 30.16 1021 10 16.0934 0 0
7:52 am 07:52 Partly Cloudy 35 1.7 24 -4.4 64 64 undefined N/A 30.17 1022 10 16.0934 0 0
8:52 am 08:52 Mostly Cloudy 37 2.8 24 -4.4 59 59 SSW 9 15 30.19 1022 10 16.0934 0 0
9:52 am 09:52 Mostly Cloudy 40 4.4 24 -4.4 53 53 SSW 9 15 30.2 1023 10 16.0934 0 0
10:52 am 10:52 Mostly Cloudy 43 6.1 25 -3.9 49 49 SSW 15 24 30.17 1022 10 16.0934 0 0
11:52 am 11:52 Partly Cloudy 48 8.9 25 -3.9 41 41 SW 16 26 30.15 1021 10 16.0934 0 0
12:52 pm 12:52 Partly Cloudy 48 8.9 24 -4.4 39 39 W 13 20 30.12 1020 10 16.0934 0 0
1:52 pm 13:52 Mostly Sunny 51 10.6 22 -5.6 32 32 W 14 22 30.11 1020 10 16.0934 0 0
2:52 pm 14:52 Mostly Sunny 52 11.1 15 -9.4 23 23 W 16 26 30.11 1020 10 16.0934 0 0
3:52 pm 15:52 Mostly Sunny 52 11.1 14 -10 22 22 WNW 13 20 30.13 1020 10 16.0934 0 0
4:52 pm 16:52 Mostly Sunny 50 10 12 -11.1 22 22 W 10 17 30.14 1021 10 16.0934 0 0
5:52 pm 17:52 Mostly Clear 48 8.9 12 -11.1 23 23 W 6 9 30.16 1022 10 16.0934 0 0
6:52 pm 18:52 Mostly Clear 47 8.3 13 -10.6 25 25 Calm 30.17 1022 10 16.0934 0 0
7:52 pm 19:52 Mostly Clear 42 5.6 23 -5 47 47 SE 5 7 30.16 1022 10 16.0934 0 0
8:52 pm 20:52 Mostly Cloudy 41 5 18 -7.8 39 39 WSW 5 7 30.16 1021 10 16.0934 0 0
9:52 pm 21:52 Mostly Cloudy 37 2.8 20 -6.7 50 50 NNW 6 9 30.14 1021 10 16.0934 0 0
10:52 pm 22:52 Cloudy 37 2.8 22 -5.6 54 54 SSW 5 7 30.12 1020 10 16.0934 0 0
11:52 pm 23:52 Cloudy 36 2.2 30 -1.1 79 79 S 6 9 30.09 1019 10 16.0934 0 0

Powered by AerisWeather